When you browse on this site, cookies collect data to enhance your experience and personalize the content and advertising you see.
Visit our Privacy Policy to learn more. By continuing to use the site, you agree to this use of cookies and data.
  • In Italy
  • List of Countries
  • For 7 days
  • Water Temperature
  • Satellite Maps
  • Weather Map
  • Weather Widgets
  • user-avatar
    Login

    Hourly Weather Aveiro

    Today, 17 January, Thursday

    Time Temperature Precipitation Wind Pressure Humidity
    00:00 +7°C° 0 mm 2 mps 763 mmHg 95%
    01:00 +7°C° 0 mm 2 mps 763 mmHg 94%
    02:00 +7°C° 0 mm 3 mps 763 mmHg 94%
    03:00 +7°C° 0 mm 3 mps 763 mmHg 94%
    04:00 +6°C° 0 mm 4 mps 764 mmHg 94%
    05:00 +6°C° 0 mm 4 mps 764 mmHg 94%
    06:00 +6°C° 0 mm 4 mps 764 mmHg 92%
    07:00 +6°C° 0 mm 4 mps 764 mmHg 91%
    08:00 +7°C° 0 mm 4 mps 765 mmHg 90%
    09:00 +8°C° 0 mm 4 mps 765 mmHg 82%
    10:00 +10°C° 0 mm 5 mps 765 mmHg 74%
    11:00 +12°C° 0 mm 5 mps 765 mmHg 67%
    12:00 +12°C° 0 mm 5 mps 764 mmHg 62%
    13:00 +13°C° 0 mm 5 mps 764 mmHg 58%
    14:00 +13°C° 0 mm 6 mps 764 mmHg 53%
    15:00 +12°C° 0 mm 5 mps 764 mmHg 60%
    16:00 +9°C° 0 mm 5 mps 764 mmHg 66%
    17:00 +8°C° 0 mm 5 mps 764 mmHg 73%
    18:00 +7°C° 0 mm 4 mps 765 mmHg 76%
    19:00 +7°C° 0 mm 4 mps 765 mmHg 79%
    20:00 +6°C° 0 mm 4 mps 765 mmHg 82%
    21:00 +7°C° 0 mm 3 mps 765 mmHg 82%
    22:00 +5°C° 0 mm 3 mps 766 mmHg 83%
    23:00 +6°C° 0 mm 2 mps 766 mmHg 84%

    Tomorrow, 18 January, Friday

    Time Temperature Precipitation Wind Pressure Humidity
    00:00 +6°C° 0 mm 2 mps 765 mmHg 84%
    01:00 +6°C° 0 mm 2 mps 765 mmHg 83%
    02:00 +5°C° 0 mm 2 mps 765 mmHg 83%
    03:00 +5°C° 0 mm 2 mps 765 mmHg 83%
    04:00 +5°C° 0 mm 2 mps 765 mmHg 84%
    05:00 +5°C° 0 mm 2 mps 765 mmHg 84%
    06:00 +7°C° 0 mm 1 mps 765 mmHg 82%
    07:00 +7°C° 0 mm 1 mps 765 mmHg 80%
    08:00 +8°C° 0 mm 1 mps 765 mmHg 78%
    09:00 +9°C° 0.1 mm 1 mps 765 mmHg 75%
    10:00 +10°C° 0.1 mm 1 mps 765 mmHg 72%
    11:00 +11°C° 0.1 mm 0 mps 765 mmHg 69%
    12:00 +12°C° 0 mm 1 mps 765 mmHg 69%
    13:00 +12°C° 0 mm 1 mps 764 mmHg 69%
    14:00 +13°C° 0 mm 1 mps 764 mmHg 69%
    15:00 +12°C° 0 mm 2 mps 763 mmHg 75%
    16:00 +10°C° 0 mm 2 mps 763 mmHg 80%
    17:00 +9°C° 0 mm 2 mps 763 mmHg 85%
    18:00 +9°C° 0.1 mm 2 mps 763 mmHg 87%
    19:00 +9°C° 0.1 mm 3 mps 763 mmHg 88%
    20:00 +9°C° 0.1 mm 3 mps 763 mmHg 90%
    21:00 +8°C° 0.1 mm 4 mps 763 mmHg 90%
    22:00 +8°C° 0.1 mm 4 mps 762 mmHg 90%
    23:00 +8°C° 0.1 mm 4 mps 762 mmHg 91%

    Day after tomorrow, 19 January, Saturday

    Time Temperature Precipitation Wind Pressure Humidity
    00:00 +9°C° 0.3 mm 3 mps 762 mmHg 92%
    01:00 +10°C° 0.3 mm 3 mps 761 mmHg 93%
    02:00 +10°C° 0.3 mm 2 mps 761 mmHg 95%
    03:00 +10°C° 0.6 mm 3 mps 761 mmHg 96%
    04:00 +11°C° 0.6 mm 3 mps 760 mmHg 97%
    05:00 +12°C° 0.6 mm 4 mps 760 mmHg 98%
    06:00 +12°C° 1.2 mm 5 mps 760 mmHg 97%
    07:00 +12°C° 1.2 mm 5 mps 759 mmHg 96%
    08:00 +13°C° 1.2 mm 6 mps 759 mmHg 95%
    09:00 +13°C° 2 mm 6 mps 759 mmHg 94%
    10:00 +14°C° 2 mm 6 mps 758 mmHg 93%
    11:00 +14°C° 2 mm 6 mps 758 mmHg 93%
    12:00 +14°C° 0.4 mm 6 mps 758 mmHg 91%
    13:00 +14°C° 0.4 mm 6 mps 757 mmHg 90%
    14:00 +15°C° 0.4 mm 6 mps 757 mmHg 89%
    15:00 +14°C° 1 mm 6 mps 757 mmHg 91%
    16:00 +13°C° 1 mm 5 mps 757 mmHg 93%
    17:00 +13°C° 1 mm 4 mps 757 mmHg 95%
    18:00 +12°C° 0.2 mm 5 mps 757 mmHg 95%
    19:00 +12°C° 0.2 mm 5 mps 758 mmHg 95%
    20:00 +12°C° 0.2 mm 5 mps 758 mmHg 95%
    21:00 +11°C° 0 mm 6 mps 759 mmHg 93%
    22:00 +11°C° 0 mm 7 mps 759 mmHg 92%
    23:00 +10°C° 0 mm 8 mps 759 mmHg 90%

    20 January, Sunday

    Time Temperature Precipitation Wind Pressure Humidity
    00:00 +10°C° 0 mm 8 mps 760 mmHg 89%
    01:00 +10°C° 0 mm 8 mps 760 mmHg 88%
    02:00 +10°C° 0 mm 8 mps 761 mmHg 86%
    03:00 +9°C° 0 mm 8 mps 761 mmHg 86%
    04:00 +8°C° 0 mm 7 mps 762 mmHg 85%
    05:00 +8°C° 0 mm 7 mps 762 mmHg 85%
    06:00 +8°C° 0 mm 7 mps 763 mmHg 84%
    07:00 +8°C° 0 mm 7 mps 764 mmHg 83%
    08:00 +8°C° 0 mm 7 mps 765 mmHg 82%
    09:00 +9°C° 0 mm 6 mps 765 mmHg 75%
    10:00 +10°C° 0 mm 6 mps 766 mmHg 69%
    11:00 +13°C° 0 mm 6 mps 766 mmHg 62%
    12:00 +13°C° 0 mm 6 mps 766 mmHg 61%
    13:00 +13°C° 0 mm 6 mps 766 mmHg 60%
    14:00 +12°C° 0 mm 7 mps 765 mmHg 59%
    15:00 +11°C° 0 mm 6 mps 766 mmHg 65%
    16:00 +10°C° 0 mm 6 mps 766 mmHg 71%
    17:00 +9°C° 0 mm 6 mps 767 mmHg 76%
    18:00 +8°C° 0 mm 6 mps 767 mmHg 78%
    19:00 +8°C° 0 mm 5 mps 768 mmHg 80%
    20:00 +8°C° 0 mm 5 mps 769 mmHg 81%
    21:00 +7°C° 0 mm 5 mps 769 mmHg 82%
    22:00 +7°C° 0 mm 5 mps 769 mmHg 82%
    23:00 +6°C° 0 mm 5 mps 770 mmHg 83%

    21 January, Monday

    Time Temperature Precipitation Wind Pressure Humidity
    00:00 +6°C° 0 mm 5 mps 770 mmHg 84%
    01:00 +6°C° 0 mm 4 mps 770 mmHg 85%
    02:00 +5°C° 0 mm 4 mps 770 mmHg 85%
    03:00 +5°C° 0 mm 4 mps 770 mmHg 85%
    04:00 +5°C° 0 mm 3 mps 770 mmHg 85%
    05:00 +4°C° 0 mm 3 mps 770 mmHg 85%
    06:00 +5°C° 0 mm 3 mps 770 mmHg 82%
    07:00 +5°C° 0 mm 3 mps 770 mmHg 80%
    08:00 +7°C° 0 mm 2 mps 771 mmHg 77%
    09:00 +9°C° 0 mm 3 mps 771 mmHg 71%
    10:00 +11°C° 0 mm 3 mps 771 mmHg 64%
    11:00 +12°C° 0 mm 3 mps 770 mmHg 57%
    12:00 +12°C° 0 mm 3 mps 770 mmHg 57%
    13:00 +12°C° 0 mm 4 mps 769 mmHg 58%
    14:00 +13°C° 0 mm 4 mps 769 mmHg 58%
    15:00 +11°C° 0 mm 4 mps 769 mmHg 66%
    16:00 +10°C° 0 mm 4 mps 769 mmHg 73%
    17:00 +8°C° 0 mm 3 mps 769 mmHg 81%
    18:00 +7°C° 0 mm 4 mps 769 mmHg 83%
    19:00 +6°C° 0 mm 4 mps 769 mmHg 85%
    20:00 +6°C° 0 mm 4 mps 769 mmHg 87%
    21:00 +6°C° 0 mm 4 mps 769 mmHg 87%
    22:00 +7°C° 0 mm 3 mps 769 mmHg 87%
    23:00 +5°C° 0 mm 3 mps 769 mmHg 88%

    22 January, Tuesday

    Time Temperature Precipitation Wind Pressure Humidity
    00:00 +5°C° 0 mm 3 mps 768 mmHg 88%
    01:00 +5°C° 0 mm 3 mps 768 mmHg 88%
    02:00 +5°C° 0 mm 3 mps 768 mmHg 88%
    03:00 +7°C° 0 mm 2 mps 767 mmHg 87%
    04:00 +7°C° 0 mm 2 mps 766 mmHg 87%
    05:00 +9°C° 0 mm 1 mps 765 mmHg 86%
    06:00 +8°C° 1.1 mm 3 mps 765 mmHg 89%
    07:00 +8°C° 1.1 mm 4 mps 765 mmHg 93%
    08:00 +8°C° 1.1 mm 6 mps 765 mmHg 96%
    09:00 +9°C° 0.2 mm 7 mps 765 mmHg 88%
    10:00 +8°C° 0.2 mm 9 mps 764 mmHg 80%
    11:00 +9°C° 0.2 mm 10 mps 764 mmHg 72%
    12:00 +8°C° 0.1 mm 10 mps 764 mmHg 68%
    13:00 +8°C° 0.1 mm 10 mps 764 mmHg 64%
    14:00 +8°C° 0.1 mm 10 mps 764 mmHg 60%
    15:00 +8°C° 0.1 mm 9 mps 764 mmHg 64%
    16:00 +7°C° 0.1 mm 8 mps 764 mmHg 67%
    17:00 +6°C° 0.1 mm 8 mps 764 mmHg 71%
    18:00 +7°C° 0.1 mm 8 mps 764 mmHg 72%
    19:00 +7°C° 0.1 mm 8 mps 764 mmHg 73%
    20:00 +7°C° 0.1 mm 9 mps 764 mmHg 73%
    21:00 +7°C° 0 mm 8 mps 764 mmHg 75%
    22:00 +8°C° 0 mm 7 mps 764 mmHg 77%
    23:00 +8°C° 0 mm 7 mps 763 mmHg 78%
    Show more